Location: Huntsville
(41.2590°N, 111.7678°W)
Time: 05:49:19
(UTC+00:00)

N. Korean satellite - Pass Details

Date: 02 December 2021
Orbit: 447 x 491 km, 97.3° (Epoch: 25 January)

Event Time Altitude Azimuth Distance (km) Brightness Sun altitude
Rises 13:37:44 0° 354° (N) 2,467 9.9 -10.6°
Reaches altitude 10° 13:40:17 10° 333° (NNW) 1,584 8.7 -10.1°
Maximum altitude 13:42:31 17° 292° (WNW) 1,224 7.9 -9.7°
Drops below altitude 10° 13:44:44 10° 250° (WSW) 1,572 8.7 -9.3°
Sets 13:47:16 0° 229° (SW) 2,438 9.8 -8.9°
